QPF
0.00 0.00 0.00 0.01 0.06 0.06 0.04 0.02 0.02 0.01 0.01 0.00 0.00 0.00 0.01 0.02 0.03 0.06 0.08 0.06 0.03 0.02 0.01 0.00 0.02 0.03 0.04 0.05 0.05 0.05 0.05 0.04 0.05 0.05 0.05 0.06 0.07 0.06 0.05 0.05 0.05 0.04 0.04 0.05 0.05 0.06 0.05 0.06 0.07
0.00 0.00 0.00 0.02 0.07 0.07 0.04 0.01 0.01 0.02 0.00 0.00 0.00 0.00 0.01 0.02 0.02 0.03 0.06 0.04 0.03 0.02 0.01 0.01 0.03 0.04 0.06 0.07 0.08 0.05 0.03 0.03 0.02 0.04 0.05 0.05 0.05 0.05 0.04 0.05 0.05 0.04 0.06 0.06 0.05 0.04 0.05 0.06 0.06
0.00 0.00 0.00 0.02 0.04 0.05 0.03 0.01 0.01 0.00 0.00 0.00 0.01 0.00 0.01 0.02 0.03 0.04 0.05 0.03 0.02 0.02 0.01 0.01 0.02 0.03 0.06 0.07 0.06 0.05 0.03 0.03 0.03 0.04 0.04 0.04 0.04 0.04 0.05 0.05 0.06 0.05 0.04 0.04 0.04 0.04 0.05 0.06 0.06
0.00 0.00 0.00 0.01 0.02 0.02 0.01 0.01 0.00 0.00 0.01 0.01 0.00 0.00 0.00 0.02 0.03 0.04 0.02 0.02 0.02 0.01 0.01 0.01 0.03 0.03 0.04 0.04 0.04 0.04 0.04 0.03 0.03 0.04 0.03 0.03 0.03 0.03 0.04 0.04 0.04 0.04 0.03 0.02 0.04 0.04 0.06 0.07 0.07
0.00 0.00 0.01 0.01 0.02 0.01 0.00 0.00 0.00 0.01 0.01 0.01 0.01 0.00 0.01 0.01 0.02 0.03 0.01 0.01 0.02 0.02 0.01 0.01 0.02 0.03 0.04 0.04 0.04 0.04 0.04 0.03 0.03 0.03 0.03 0.03 0.05 0.05 0.05 0.04 0.05 0.03 0.03 0.03 0.03 0.05 0.06 0.07 0.07
0.01 0.01 0.01 0.01 0.02 0.01 0.00 0.00 0.00 0.01 0.01 0.01 0.01 0.00 0.01 0.01 0.01 0.03 0.02 0.01 0.02 0.03 0.02 0.01 0.02 0.03 0.03 0.03 0.04 0.04 0.04 0.04 0.03 0.02 0.03 0.04 0.04 0.03 0.03 0.05 0.06 0.04 0.04 0.04 0.03 0.05 0.06 0.06 0.05
0.01 0.01 0.01 0.01 0.01 0.01 0.00 0.00 0.01 0.01 0.01 0.00 0.00 0.00 0.01 0.01 0.01 0.01 0.01 0.02 0.02 0.02 0.02 0.01 0.01 0.02 0.02 0.03 0.05 0.05 0.04 0.04 0.03 0.03 0.03 0.03 0.03 0.02 0.03 0.04 0.06 0.06 0.06 0.04 0.04 0.06 0.05 0.04 0.04
0.00 0.00 0.00 0.01 0.02 0.01 0.00 0.00 0.00 0.01 0.00 0.00 0.00 0.01 0.02 0.01 0.01 0.01 0.01 0.01 0.02 0.02 0.01 0.02 0.04 0.03 0.03 0.03 0.03 0.04 0.03 0.04 0.04 0.03 0.03 0.03 0.03 0.03 0.04 0.03 0.05 0.06 0.05 0.04 0.05 0.05 0.04 0.03 0.03
0.00 0.01 0.01 0.01 0.02 0.01 0.00 0.00 0.00 0.00 0.00 0.00 0.00 0.00 0.00 0.00 0.00 0.00 0.00 0.01 0.01 0.01 0.01 0.02 0.04 0.03 0.03 0.03 0.02 0.02 0.03 0.03 0.04 0.03 0.02 0.04 0.08 0.07 0.07 0.04 0.05 0.05 0.04 0.05 0.05 0.04 0.05 0.04 0.03
0.00 0.01 0.01 0.00 0.00 0.00 0.00 0.00 0.00 0.01 0.01 0.00 0.00 0.00 0.00 0.00 0.00 0.00 0.01 0.01 0.01 0.01 0.00 0.01 0.01 0.01 0.02 0.03 0.04 0.04 0.04 0.04 0.05 0.05 0.03 0.05 0.07 0.05 0.04 0.04 0.05 0.06 0.04 0.05 0.05 0.04 0.05 0.07 0.07
0.00 0.01 0.00 0.00 0.00 0.00 0.00 0.00 0.00 0.01 0.01 0.00 0.00 0.00 0.00 0.00 0.00 0.00 0.01 0.00 0.00 0.00 0.00 0.00 0.01 0.01 0.02 0.03 0.05 0.05 0.06 0.07 0.06 0.06 0.04 0.04 0.04 0.04 0.04 0.03 0.04 0.05 0.04 0.04 0.03 0.04 0.05 0.05 0.06
0.00 0.00 0.00 0.00 0.00 0.00 0.00 0.00 0.00 0.00 0.01 0.00 0.00 0.00 0.00 0.00 0.01 0.01 0.01 0.00 0.00 0.00 0.00 0.00 0.01 0.02 0.03 0.02 0.04 0.05 0.07 0.06 0.04 0.04 0.02 0.03 0.04 0.05 0.05 0.03 0.04 0.04 0.06 0.06 0.05 0.04 0.03 0.03 0.03
0.00 0.00 0.00 0.00 0.00 0.00 0.00 0.00 0.00 0.00 0.00 0.00 0.00 0.00 0.00 0.00 0.01 0.00 0.00 0.00 0.00 0.00 0.00 0.00 0.00 0.01 0.02 0.03 0.03 0.04 0.05 0.05 0.04 0.03 0.02 0.02 0.03 0.04 0.03 0.03 0.04 0.05 0.04 0.04 0.05 0.03 0.02 0.02 0.03
0.00 0.00 0.00 0.00 0.00 0.00 0.00 0.00 0.00 0.01 0.00 0.00 0.00 0.00 0.00 0.00 0.01 0.00 0.00 0.00 0.00 0.00 0.00 0.00 0.00 0.00 0.01 0.03 0.04 0.04 0.04 0.05 0.04 0.03 0.01 0.01 0.01 0.02 0.02 0.02 0.02 0.03 0.03 0.03 0.03 0.02 0.01 0.03 0.03
0.00 0.00 0.01 0.01 0.01 0.00 0.00 0.01 0.01 0.00 0.00 0.00 0.00 0.00 0.00 0.00 0.00 0.00 0.00 0.00 0.00 0.00 0.00 0.00 0.00 0.00 0.01 0.03 0.03 0.04 0.03 0.04 0.03 0.02 0.01 0.01 0.01 0.02 0.01 0.01 0.02 0.02 0.02 0.02 0.02 0.02 0.02 0.02 0.02
0.00 0.01 0.01 0.01 0.02 0.00 0.00 0.01 0.01 0.00 0.00 0.00 0.00 0.00 0.00 0.00 0.00 0.00 0.00 0.00 0.00 0.00 0.00 0.00 0.00 0.00 0.01 0.02 0.03 0.04 0.04 0.06 0.03 0.02 0.01 0.01 0.01 0.01 0.02 0.02 0.02 0.02 0.02 0.02 0.02 0.03 0.04 0.03 0.03
0.00 0.01 0.01 0.01 0.01 0.00 0.01 0.01 0.01 0.00 0.00 0.00 0.00 0.00 0.00 0.00 0.01 0.01 0.01 0.01 0.01 0.00 0.00 0.01 0.01 0.01 0.01 0.01 0.02 0.04 0.04 0.06 0.05 0.02 0.02 0.01 0.01 0.01 0.03 0.02 0.02 0.03 0.03 0.03 0.02 0.03 0.03 0.03 0.03
0.00 0.00 0.01 0.01 0.01 0.00 0.01 0.02 0.00 0.00 0.00 0.00 0.00 0.00 0.00 0.00 0.01 0.00 0.00 0.01 0.01 0.01 0.01 0.01 0.01 0.01 0.01 0.01 0.02 0.05 0.05 0.06 0.04 0.02 0.01 0.02 0.02 0.02 0.03 0.02 0.03 0.02 0.03 0.04 0.04 0.04 0.03 0.03 0.02
0.00 0.00 0.01 0.01 0.00 0.00 0.01 0.01 0.00 0.00 0.00 0.00 0.00 0.00 0.00 0.00 0.00 0.00 0.00 0.00 0.01 0.01 0.02 0.02 0.02 0.01 0.01 0.02 0.02 0.03 0.04 0.05 0.04 0.04 0.04 0.03 0.02 0.02 0.02 0.02 0.03 0.04 0.03 0.03 0.03 0.05 0.03 0.03 0.01
0.00 0.01 0.01 0.01 0.00 0.00 0.01 0.02 0.01 0.00 0.00 0.00 0.00 0.00 0.00 0.00 0.00 0.00 0.00 0.00 0.00 0.01 0.02 0.03 0.02 0.01 0.01 0.01 0.01 0.01 0.01 0.02 0.03 0.05 0.12 0.05 0.02 0.01 0.01 0.02 0.03 0.03 0.03 0.03 0.03 0.05 0.04 0.02 0.01
0.01 0.01 0.01 0.01 0.01 0.01 0.02 0.02 0.02 0.01 0.01 0.01 0.00 0.00 0.00 0.00 0.00 0.00 0.00 0.00 0.00 0.00 0.01 0.02 0.02 0.01 0.00 0.01 0.01 0.02 0.03 0.03 0.04 0.06 0.12 0.07 0.03 0.02 0.02 0.01 0.01 0.02 0.02 0.02 0.03 0.04 0.04 0.03 0.01
0.01 0.00 0.02 0.01 0.01 0.02 0.02 0.02 0.02 0.01 0.01 0.01 0.01 0.00 0.00 0.00 0.00 0.01 0.01 0.00 0.00 0.00 0.00 0.01 0.02 0.02 0.02 0.01 0.01 0.02 0.03 0.04 0.04 0.03 0.04 0.04 0.03 0.02 0.02 0.03 0.02 0.01 0.02 0.02 0.02 0.04 0.03 0.03 0.03
0.01 0.00 0.02 0.02 0.02 0.01 0.01 0.02 0.02 0.00 0.00 0.01 0.01 0.01 0.00 0.00 0.00 0.00 0.00 0.00 0.00 0.00 0.00 0.00 0.01 0.02 0.02 0.02 0.02 0.03 0.03 0.03 0.03 0.03 0.06 0.06 0.04 0.03 0.03 0.03 0.03 0.02 0.03 0.03 0.02 0.03 0.03 0.03 0.04
0.02 0.02 0.02 0.03 0.03 0.02 0.01 0.01 0.01 0.00 0.00 0.00 0.01 0.01 0.01 0.00 0.00 0.00 0.00 0.00 0.00 0.00 0.00 0.00 0.01 0.02 0.02 0.02 0.02 0.03 0.04 0.04 0.05 0.07 0.08 0.06 0.04 0.03 0.03 0.02 0.01 0.01 0.02 0.02 0.01 0.01 0.03 0.03 0.03
0.02 0.02 0.03 0.05 0.04 0.02 0.01 0.01 0.01 0.00 0.00 0.00 0.00 0.00 0.00 0.00 0.00 0.00 0.00 0.00 0.00 0.00 0.00 0.00 0.01 0.02 0.01 0.01 0.02 0.02 0.03 0.04 0.04 0.05 0.05 0.04 0.03 0.03 0.03 0.03 0.02 0.02 0.01 0.01 0.01 0.01 0.03 0.03 0.03
0.02 0.02 0.03 0.04 0.04 0.02 0.01 0.01 0.01 0.00 0.00 0.00 0.00 0.00 0.00 0.00 0.00 0.00 0.00 0.00 0.00 0.00 0.00 0.00 0.01 0.01 0.01 0.02 0.02 0.02 0.02 0.03 0.03 0.04 0.04 0.04 0.03 0.02 0.03 0.03 0.03 0.02 0.02 0.01 0.01 0.01 0.01 0.02 0.02
0.02 0.02 0.01 0.02 0.03 0.02 0.01 0.00 0.00 0.00 0.00 0.00 0.00 0.00 0.00 0.00 0.00 0.00 0.00 0.00 0.00 0.00 0.00 0.00 0.00 0.01 0.01 0.01 0.02 0.02 0.03 0.02 0.03 0.03 0.03 0.03 0.03 0.02 0.03 0.04 0.03 0.03 0.03 0.02 0.02 0.02 0.01 0.01 0.01
0.01 0.01 0.01 0.02 0.02 0.02 0.01 0.01 0.01 0.00 0.00 0.00 0.00 0.00 0.00 0.00 0.00 0.00 0.00 0.00 0.00 0.00 0.00 0.00 0.00 0.01 0.01 0.01 0.02 0.02 0.02 0.02 0.02 0.03 0.03 0.03 0.03 0.02 0.02 0.02 0.03 0.04 0.04 0.02 0.02 0.02 0.02 0.01 0.01
0.01 0.00 0.00 0.01 0.01 0.01 0.01 0.01 0.00 0.00 0.00 0.00 0.00 0.00 0.00 0.00 0.00 0.00 0.00 0.00 0.00 0.00 0.00 0.00 0.00 0.01 0.01 0.00 0.01 0.01 0.02 0.02 0.02 0.02 0.02 0.04 0.04 0.03 0.03 0.02 0.02 0.02 0.03 0.02 0.02 0.02 0.02 0.02 0.01
0.00 0.00 0.00 0.00 0.00 0.00 0.01 0.01 0.00 0.00 0.00 0.00 0.00 0.00 0.00 0.00 0.00 0.00 0.00 0.00 0.00 0.00 0.00 0.01 0.00 0.01 0.01 0.00 0.00 0.00 0.01 0.02 0.02 0.01 0.01 0.03 0.04 0.04 0.02 0.02 0.03 0.03 0.02 0.03 0.02 0.02 0.02 0.02 0.01
MSLP
1006.96 1007.59 1008.48 1009.53 1010.60 1011.58 1012.35 1012.85 1013.08 1013.09 1012.97 1012.83 1012.76 1012.78 1012.92 1013.11 1013.30 1013.41 1013.40 1013.26 1013.04 1012.78 1012.55 1012.41 1012.38 1012.42 1012.49 1012.53 1012.47 1012.29 1012.00 1011.62 1011.23 1010.89 1010.64 1010.50 1010.47 1010.50 1010.55 1010.58 1010.58 1010.54 1010.49 1010.46 1010.50 1010.61 1010.82 1011.09 1011.39
1007.25 1008.05 1009.05 1010.13 1011.17 1012.05 1012.67 1013.01 1013.08 1012.95 1012.73 1012.54 1012.43 1012.46 1012.59 1012.79 1012.97 1013.07 1013.05 1012.92 1012.71 1012.49 1012.32 1012.25 1012.30 1012.42 1012.56 1012.65 1012.64 1012.49 1012.23 1011.87 1011.50 1011.16 1010.90 1010.74 1010.66 1010.64 1010.62 1010.57 1010.50 1010.40 1010.32 1010.29 1010.34 1010.50 1010.75 1011.08 1011.44
1007.73 1008.66 1009.73 1010.80 1011.76 1012.49 1012.94 1013.09 1012.99 1012.72 1012.41 1012.17 1012.04 1012.07 1012.21 1012.41 1012.59 1012.67 1012.65 1012.51 1012.32 1012.13 1012.02 1012.01 1012.13 1012.32 1012.53 1012.69 1012.74 1012.65 1012.43 1012.11 1011.77 1011.45 1011.19 1011.01 1010.89 1010.80 1010.71 1010.60 1010.46 1010.33 1010.22 1010.20 1010.28 1010.48 1010.78 1011.16 1011.57
1008.34 1009.36 1010.45 1011.49 1012.33 1012.91 1013.18 1013.15 1012.89 1012.51 1012.13 1011.84 1011.71 1011.73 1011.87 1012.07 1012.22 1012.29 1012.24 1012.09 1011.90 1011.74 1011.67 1011.72 1011.89 1012.15 1012.42 1012.64 1012.75 1012.72 1012.56 1012.29 1011.99 1011.70 1011.45 1011.26 1011.12 1010.99 1010.85 1010.69 1010.52 1010.36 1010.25 1010.24 1010.35 1010.59 1010.94 1011.36 1011.80
1008.99 1010.07 1011.15 1012.11 1012.84 1013.27 1013.37 1013.20 1012.83 1012.38 1011.96 1011.66 1011.53 1011.55 1011.68 1011.85 1011.97 1011.99 1011.90 1011.72 1011.52 1011.36 1011.31 1011.39 1011.61 1011.92 1012.24 1012.51 1012.67 1012.69 1012.58 1012.38 1012.12 1011.87 1011.65 1011.47 1011.32 1011.18 1011.03 1010.85 1010.67 1010.51 1010.41 1010.42 1010.56 1010.83 1011.20 1011.64 1012.09
1009.60 1010.68 1011.71 1012.58 1013.19 1013.49 1013.49 1013.24 1012.82 1012.35 1011.94 1011.66 1011.54 1011.57 1011.67 1011.80 1011.85 1011.81 1011.65 1011.43 1011.19 1011.02 1010.97 1011.08 1011.32 1011.65 1012.00 1012.30 1012.49 1012.55 1012.49 1012.34 1012.13 1011.93 1011.76 1011.61 1011.49 1011.37 1011.23 1011.07 1010.91 1010.77 1010.70 1010.73 1010.88 1011.16 1011.53 1011.95 1012.39
1010.07 1011.10 1012.05 1012.81 1013.32 1013.54 1013.48 1013.21 1012.81 1012.39 1012.03 1011.81 1011.72 1011.75 1011.83 1011.89 1011.87 1011.75 1011.52 1011.23 1010.95 1010.76 1010.70 1010.80 1011.05 1011.38 1011.73 1012.04 1012.24 1012.33 1012.30 1012.19 1012.04 1011.89 1011.77 1011.68 1011.61 1011.53 1011.44 1011.32 1011.20 1011.10 1011.05 1011.10 1011.25 1011.52 1011.86 1012.25 1012.64
1010.36 1011.29 1012.13 1012.79 1013.21 1013.38 1013.31 1013.08 1012.75 1012.43 1012.17 1012.02 1011.98 1012.01 1012.06 1012.06 1011.97 1011.76 1011.45 1011.11 1010.79 1010.58 1010.50 1010.59 1010.83 1011.15 1011.48 1011.77 1011.97 1012.06 1012.05 1011.98 1011.87 1011.78 1011.72 1011.69 1011.69 1011.67 1011.64 1011.58 1011.50 1011.44 1011.42 1011.48 1011.62 1011.85 1012.15 1012.48 1012.82
1010.47 1011.28 1011.98 1012.53 1012.88 1013.02 1012.98 1012.82 1012.61 1012.41 1012.26 1012.20 1012.21 1012.26 1012.28 1012.22 1012.06 1011.78 1011.42 1011.04 1010.70 1010.47 1010.39 1010.47 1010.69 1010.98 1011.29 1011.56 1011.74 1011.82 1011.82 1011.76 1011.70 1011.65 1011.65 1011.69 1011.74 1011.79 1011.82 1011.81 1011.78 1011.76 1011.76 1011.82 1011.94 1012.14 1012.38 1012.66 1012.93
1010.45 1011.12 1011.69 1012.12 1012.40 1012.53 1012.54 1012.47 1012.37 1012.29 1012.26 1012.28 1012.33 1012.38 1012.38 1012.28 1012.07 1011.76 1011.37 1010.98 1010.65 1010.44 1010.37 1010.45 1010.65 1010.92 1011.20 1011.43 1011.58 1011.65 1011.65 1011.61 1011.57 1011.57 1011.61 1011.69 1011.79 1011.89 1011.96 1012.01 1012.02 1012.02 1012.04 1012.10 1012.21 1012.37 1012.57 1012.80 1013.01
1010.41 1010.93 1011.36 1011.69 1011.90 1012.02 1012.07 1012.07 1012.07 1012.09 1012.14 1012.22 1012.30 1012.35 1012.33 1012.21 1011.98 1011.66 1011.29 1010.93 1010.64 1010.46 1010.42 1010.51 1010.71 1010.96 1011.21 1011.41 1011.54 1011.59 1011.58 1011.55 1011.53 1011.54 1011.61 1011.72 1011.85 1011.97 1012.08 1012.15 1012.19 1012.22 1012.26 1012.33 1012.43 1012.58 1012.76 1012.96 1013.14
1010.41 1010.80 1011.11 1011.34 1011.49 1011.59 1011.66 1011.71 1011.77 1011.84 1011.93 1012.04 1012.12 1012.16 1012.13 1012.00 1011.78 1011.49 1011.18 1010.88 1010.65 1010.53 1010.54 1010.65 1010.86 1011.10 1011.32 1011.50 1011.60 1011.64 1011.63 1011.60 1011.58 1011.60 1011.67 1011.78 1011.92 1012.05 1012.16 1012.25 1012.31 1012.36 1012.43 1012.52 1012.65 1012.81 1013.00 1013.19 1013.37
1010.53 1010.81 1011.01 1011.16 1011.26 1011.33 1011.40 1011.46 1011.53 1011.61 1011.70 1011.79 1011.86 1011.88 1011.84 1011.73 1011.54 1011.31 1011.07 1010.85 1010.70 1010.65 1010.70 1010.85 1011.05 1011.28 1011.49 1011.65 1011.75 1011.77 1011.76 1011.73 1011.71 1011.73 1011.78 1011.87 1011.99 1012.10 1012.21 1012.30 1012.38 1012.47 1012.57 1012.71 1012.89 1013.10 1013.32 1013.55 1013.75
1010.76 1010.96 1011.09 1011.18 1011.24 1011.28 1011.32 1011.37 1011.41 1011.46 1011.52 1011.56 1011.59 1011.59 1011.55 1011.46 1011.33 1011.17 1011.01 1010.88 1010.81 1010.81 1010.90 1011.06 1011.26 1011.48 1011.68 1011.83 1011.92 1011.95 1011.94 1011.91 1011.89 1011.89 1011.91 1011.97 1012.05 1012.14 1012.23 1012.33 1012.43 1012.56 1012.73 1012.93 1013.18 1013.46 1013.75 1014.02 1014.27
1011.04 1011.19 1011.28 1011.34 1011.37 1011.40 1011.41 1011.42 1011.43 1011.42 1011.42 1011.41 1011.40 1011.38 1011.35 1011.29 1011.22 1011.14 1011.05 1011.00 1010.98 1011.01 1011.11 1011.26 1011.45 1011.66 1011.84 1011.99 1012.09 1012.13 1012.13 1012.11 1012.07 1012.05 1012.05 1012.06 1012.11 1012.17 1012.25 1012.35 1012.49 1012.67 1012.90 1013.19 1013.52 1013.88 1014.25 1014.59 1014.89
1011.29 1011.42 1011.50 1011.55 1011.59 1011.61 1011.62 1011.59 1011.55 1011.49 1011.43 1011.37 1011.33 1011.31 1011.30 1011.29 1011.28 1011.26 1011.24 1011.22 1011.23 1011.26 1011.33 1011.45 1011.61 1011.78 1011.96 1012.11 1012.22 1012.29 1012.31 1012.30 1012.26 1012.22 1012.18 1012.16 1012.17 1012.20 1012.28 1012.40 1012.57 1012.81 1013.12 1013.49 1013.90 1014.35 1014.79 1015.19 1015.54
1011.41 1011.54 1011.64 1011.73 1011.80 1011.84 1011.85 1011.81 1011.74 1011.64 1011.53 1011.45 1011.40 1011.39 1011.42 1011.47 1011.52 1011.56 1011.58 1011.57 1011.56 1011.55 1011.57 1011.63 1011.73 1011.87 1012.03 1012.19 1012.33 1012.43 1012.49 1012.49 1012.46 1012.41 1012.34 1012.29 1012.27 1012.29 1012.36 1012.51 1012.73 1013.02 1013.40 1013.83 1014.31 1014.81 1015.30 1015.76 1016.14
1011.36 1011.50 1011.65 1011.80 1011.93 1012.02 1012.06 1012.03 1011.94 1011.82 1011.70 1011.61 1011.58 1011.61 1011.70 1011.82 1011.93 1012.01 1012.05 1012.03 1011.96 1011.88 1011.82 1011.80 1011.84 1011.94 1012.09 1012.27 1012.45 1012.60 1012.70 1012.73 1012.71 1012.65 1012.57 1012.49 1012.44 1012.45 1012.54 1012.71 1012.97 1013.31 1013.73 1014.21 1014.72 1015.25 1015.76 1016.22 1016.62
1011.11 1011.29 1011.51 1011.74 1011.96 1012.13 1012.21 1012.21 1012.13 1012.01 1011.89 1011.83 1011.84 1011.93 1012.09 1012.28 1012.45 1012.57 1012.60 1012.55 1012.42 1012.25 1012.10 1011.99 1011.96 1012.03 1012.19 1012.40 1012.62 1012.82 1012.97 1013.04 1013.04 1012.97 1012.88 1012.78 1012.73 1012.74 1012.83 1013.03 1013.32 1013.69 1014.13 1014.62 1015.13 1015.63 1016.12 1016.56 1016.95
1010.74 1010.97 1011.28 1011.61 1011.93 1012.18 1012.33 1012.36 1012.29 1012.18 1012.08 1012.05 1012.11 1012.27 1012.51 1012.78 1013.01 1013.16 1013.19 1013.10 1012.90 1012.65 1012.40 1012.21 1012.13 1012.18 1012.35 1012.59 1012.87 1013.14 1013.34 1013.45 1013.46 1013.40 1013.29 1013.19 1013.12 1013.14 1013.25 1013.46 1013.77 1014.15 1014.58 1015.05 1015.51 1015.96 1016.39 1016.77 1017.12
1010.32 1010.62 1011.03 1011.49 1011.91 1012.24 1012.44 1012.49 1012.44 1012.34 1012.25 1012.25 1012.36 1012.59 1012.90 1013.25 1013.54 1013.72 1013.75 1013.63 1013.37 1013.04 1012.72 1012.47 1012.36 1012.40 1012.59 1012.88 1013.21 1013.53 1013.78 1013.92 1013.95 1013.89 1013.78 1013.67 1013.61 1013.62 1013.74 1013.97 1014.29 1014.66 1015.07 1015.48 1015.87 1016.23 1016.57 1016.87 1017.16
1009.96 1010.35 1010.87 1011.43 1011.95 1012.35 1012.59 1012.65 1012.59 1012.48 1012.39 1012.40 1012.55 1012.83 1013.21 1013.62 1013.97 1014.19 1014.23 1014.08 1013.79 1013.42 1013.05 1012.76 1012.63 1012.68 1012.89 1013.22 1013.61 1013.97 1014.26 1014.43 1014.47 1014.41 1014.29 1014.18 1014.11 1014.14 1014.27 1014.50 1014.82 1015.17 1015.54 1015.88 1016.19 1016.45 1016.67 1016.88 1017.09
1009.73 1010.21 1010.84 1011.50 1012.09 1012.53 1012.78 1012.84 1012.75 1012.60 1012.49 1012.49 1012.65 1012.97 1013.41 1013.87 1014.27 1014.52 1014.58 1014.44 1014.14 1013.74 1013.36 1013.06 1012.93 1012.99 1013.22 1013.58 1014.00 1014.40 1014.70 1014.88 1014.93 1014.86 1014.74 1014.63 1014.56 1014.60 1014.74 1014.98 1015.29 1015.63 1015.95 1016.23 1016.45 1016.61 1016.73 1016.84 1016.98
1009.66 1010.22 1010.93 1011.66 1012.30 1012.76 1013.00 1013.01 1012.88 1012.68 1012.53 1012.52 1012.68 1013.01 1013.47 1013.98 1014.42 1014.71 1014.80 1014.69 1014.40 1014.01 1013.63 1013.34 1013.22 1013.29 1013.54 1013.91 1014.34 1014.74 1015.05 1015.22 1015.26 1015.19 1015.06 1014.95 1014.89 1014.94 1015.09 1015.35 1015.66 1015.98 1016.26 1016.48 1016.63 1016.70 1016.74 1016.77 1016.84
1009.70 1010.32 1011.08 1011.85 1012.50 1012.96 1013.16 1013.14 1012.95 1012.70 1012.52 1012.47 1012.62 1012.96 1013.44 1013.97 1014.44 1014.77 1014.90 1014.82 1014.57 1014.22 1013.86 1013.60 1013.49 1013.57 1013.81 1014.18 1014.59 1014.97 1015.26 1015.41 1015.43 1015.35 1015.22 1015.11 1015.07 1015.13 1015.30 1015.57 1015.88 1016.19 1016.45 1016.62 1016.72 1016.73 1016.70 1016.68 1016.70
1009.80 1010.43 1011.20 1011.96 1012.60 1013.03 1013.20 1013.13 1012.91 1012.63 1012.42 1012.35 1012.49 1012.83 1013.32 1013.87 1014.37 1014.74 1014.91 1014.88 1014.68 1014.38 1014.06 1013.83 1013.74 1013.81 1014.05 1014.38 1014.76 1015.09 1015.34 1015.45 1015.45 1015.35 1015.23 1015.13 1015.10 1015.18 1015.37 1015.65 1015.96 1016.26 1016.50 1016.66 1016.72 1016.70 1016.64 1016.58 1016.57
1009.88 1010.47 1011.19 1011.92 1012.52 1012.90 1013.04 1012.96 1012.72 1012.44 1012.23 1012.17 1012.32 1012.66 1013.16 1013.72 1014.24 1014.64 1014.85 1014.88 1014.74 1014.50 1014.24 1014.05 1013.97 1014.05 1014.25 1014.54 1014.86 1015.14 1015.33 1015.41 1015.38 1015.27 1015.15 1015.06 1015.06 1015.16 1015.36 1015.64 1015.95 1016.25 1016.47 1016.61 1016.66 1016.63 1016.56 1016.49 1016.47
1009.90 1010.40 1011.03 1011.67 1012.19 1012.53 1012.66 1012.58 1012.38 1012.14 1011.97 1011.95 1012.12 1012.49 1012.99 1013.55 1014.08 1014.51 1014.76 1014.84 1014.77 1014.61 1014.41 1014.27 1014.22 1014.29 1014.47 1014.71 1014.97 1015.19 1015.32 1015.36 1015.30 1015.20 1015.09 1015.02 1015.03 1015.14 1015.35 1015.63 1015.93 1016.21 1016.42 1016.55 1016.59 1016.56 1016.49 1016.43 1016.42
1009.87 1010.22 1010.70 1011.21 1011.65 1011.94 1012.06 1012.03 1011.89 1011.74 1011.65 1011.70 1011.93 1012.31 1012.82 1013.38 1013.92 1014.35 1014.65 1014.78 1014.78 1014.70 1014.59 1014.50 1014.49 1014.57 1014.73 1014.93 1015.14 1015.30 1015.38 1015.39 1015.32 1015.22 1015.13 1015.08 1015.11 1015.23 1015.44 1015.70 1015.98 1016.23 1016.42 1016.53 1016.57 1016.55 1016.49 1016.45 1016.45
1009.81 1009.97 1010.28 1010.63 1010.96 1011.20 1011.33 1011.36 1011.32 1011.28 1011.31 1011.45 1011.74 1012.16 1012.67 1013.22 1013.74 1014.18 1014.50 1014.68 1014.76 1014.76 1014.74 1014.74 1014.78 1014.89 1015.05 1015.23 1015.39 1015.51 1015.57 1015.56 1015.49 1015.40 1015.33 1015.31 1015.36 1015.49 1015.69 1015.92 1016.16 1016.37 1016.53 1016.62 1016.65 1016.64 1016.61 1016.59 1016.61
Thickness
5818 5821 5820 5807 5783 5769 5763 5773 5781 5779 5783 5790 5793 5788 5776 5767 5759 5747 5768 5781 5782 5780 5775 5771 5770 5769 5768 5767 5766 5766 5765 5764 5763 5763 5762 5761 5761 5761 5760 5760 5760 5760 5760 5759 5760 5759 5759 5759 5759
5820 5824 5813 5796 5770 5754 5758 5774 5775 5779 5787 5794 5792 5787 5777 5769 5775 5770 5772 5778 5781 5778 5773 5769 5767 5766 5765 5764 5763 5762 5762 5761 5760 5759 5759 5758 5758 5757 5757 5757 5757 5757 5757 5757 5757 5756 5756 5756 5756
5820 5821 5800 5786 5769 5758 5760 5776 5779 5786 5793 5792 5785 5783 5774 5767 5773 5771 5775 5779 5778 5775 5770 5766 5764 5763 5762 5761 5760 5759 5758 5758 5757 5756 5755 5755 5754 5754 5754 5754 5754 5754 5754 5753 5753 5753 5753 5753 5753
5817 5808 5798 5778 5764 5773 5777 5781 5786 5784 5787 5791 5785 5773 5771 5777 5776 5775 5779 5778 5776 5772 5768 5764 5762 5760 5759 5758 5756 5756 5755 5754 5754 5753 5752 5752 5751 5751 5751 5751 5751 5751 5751 5750 5750 5750 5749 5749 5749
5814 5796 5778 5767 5767 5778 5786 5790 5790 5781 5779 5783 5780 5764 5761 5774 5779 5779 5777 5776 5773 5770 5767 5763 5760 5758 5757 5755 5754 5753 5752 5751 5750 5749 5749 5749 5748 5748 5747 5747 5747 5747 5747 5747 5746 5746 5746 5745 5745
5798 5792 5766 5758 5764 5777 5785 5790 5788 5780 5778 5780 5776 5764 5760 5774 5774 5774 5775 5773 5772 5769 5765 5761 5758 5756 5754 5753 5751 5750 5749 5748 5747 5746 5746 5745 5745 5745 5744 5744 5744 5743 5743 5743 5743 5742 5742 5742 5742
5789 5780 5767 5766 5763 5768 5780 5790 5782 5776 5774 5777 5780 5764 5761 5768 5772 5774 5773 5771 5770 5768 5765 5761 5757 5754 5752 5750 5749 5747 5746 5745 5744 5743 5742 5742 5742 5741 5741 5740 5740 5740 5740 5739 5739 5739 5738 5738 5738
5801 5784 5772 5768 5762 5764 5781 5786 5785 5779 5775 5785 5784 5764 5756 5766 5773 5773 5771 5768 5766 5765 5763 5760 5757 5754 5751 5748 5747 5745 5743 5742 5741 5740 5740 5739 5739 5738 5738 5737 5737 5736 5736 5735 5735 5735 5734 5734 5735
5804 5774 5762 5767 5765 5768 5782 5779 5782 5787 5780 5779 5780 5774 5770 5773 5772 5767 5764 5762 5761 5761 5760 5759 5756 5753 5751 5748 5746 5743 5741 5740 5739 5738 5737 5737 5736 5736 5735 5734 5733 5733 5732 5732 5732 5731 5731 5731 5731
5792 5765 5768 5780 5781 5777 5779 5778 5778 5776 5769 5768 5769 5772 5774 5771 5767 5761 5757 5755 5755 5755 5757 5757 5755 5752 5750 5748 5744 5742 5740 5738 5737 5736 5735 5735 5734 5734 5733 5731 5730 5730 5729 5729 5728 5728 5728 5729 5728
5788 5773 5780 5785 5787 5784 5778 5777 5780 5770 5759 5764 5763 5765 5767 5766 5763 5760 5757 5755 5754 5755 5754 5755 5754 5752 5749 5747 5743 5741 5739 5737 5736 5735 5734 5733 5731 5731 5730 5728 5727 5726 5726 5726 5726 5725 5725 5726 5725
5784 5783 5785 5784 5786 5782 5777 5775 5772 5767 5765 5773 5773 5770 5766 5761 5759 5757 5755 5754 5753 5752 5751 5752 5752 5750 5748 5745 5742 5739 5737 5735 5734 5733 5732 5731 5729 5728 5727 5727 5725 5724 5723 5723 5723 5723 5723 5723 5722
5778 5778 5784 5785 5783 5780 5776 5771 5767 5765 5772 5775 5773 5768 5763 5761 5759 5760 5759 5755 5752 5750 5749 5750 5750 5748 5746 5743 5741 5738 5736 5734 5732 5731 5730 5729 5727 5726 5726 5724 5723 5722 5721 5721 5721 5720 5719 5719 5718
5779 5779 5780 5781 5779 5777 5769 5766 5765 5763 5772 5770 5766 5762 5761 5759 5758 5757 5755 5752 5751 5749 5749 5748 5748 5746 5744 5741 5739 5737 5734 5732 5730 5729 5728 5727 5726 5725 5723 5722 5720 5719 5719 5718 5717 5716 5715 5714 5712
5782 5771 5770 5773 5774 5773 5768 5753 5758 5767 5770 5764 5762 5760 5759 5759 5758 5756 5754 5753 5751 5749 5748 5747 5746 5744 5742 5739 5737 5735 5733 5731 5729 5727 5726 5725 5724 5723 5721 5719 5717 5716 5715 5714 5713 5712 5711 5709 5708
5772 5761 5751 5765 5771 5771 5757 5738 5758 5769 5765 5758 5758 5757 5755 5756 5756 5756 5756 5753 5752 5750 5747 5746 5745 5742 5740 5737 5735 5733 5731 5728 5726 5725 5724 5723 5721 5721 5718 5716 5714 5714 5712 5711 5709 5707 5705 5703 5702
5756 5747 5748 5757 5769 5767 5755 5741 5757 5766 5762 5755 5755 5756 5753 5752 5753 5754 5754 5753 5751 5749 5746 5744 5742 5739 5737 5735 5733 5730 5728 5725 5723 5722 5721 5720 5719 5718 5716 5713 5712 5711 5709 5707 5706 5703 5701 5697 5696
5747 5752 5752 5752 5762 5760 5750 5747 5755 5762 5759 5755 5754 5753 5751 5749 5749 5752 5752 5751 5749 5747 5745 5742 5740 5738 5735 5732 5729 5726 5724 5723 5721 5720 5719 5717 5716 5715 5713 5711 5710 5708 5705 5703 5701 5698 5697 5695 5694
5758 5752 5749 5755 5765 5755 5747 5747 5753 5758 5755 5752 5751 5750 5749 5748 5751 5751 5750 5748 5745 5742 5740 5739 5737 5735 5731 5727 5724 5720 5718 5718 5717 5716 5716 5715 5714 5712 5711 5709 5707 5705 5702 5700 5698 5695 5693 5691 5691
5753 5747 5747 5754 5763 5753 5745 5745 5754 5756 5753 5752 5750 5749 5747 5746 5746 5745 5745 5744 5741 5738 5737 5736 5734 5732 5730 5726 5724 5722 5719 5716 5715 5714 5713 5712 5711 5710 5709 5707 5704 5702 5700 5697 5695 5692 5689 5688 5689
5747 5744 5744 5744 5751 5752 5741 5734 5743 5752 5754 5752 5751 5750 5747 5744 5741 5740 5740 5738 5737 5734 5734 5734 5732 5730 5728 5726 5723 5720 5717 5714 5710 5709 5708 5709 5709 5708 5706 5705 5703 5701 5698 5695 5693 5691 5688 5684 5686
5736 5750 5748 5743 5733 5729 5736 5714 5734 5743 5742 5743 5743 5743 5743 5742 5740 5737 5736 5734 5733 5732 5732 5731 5729 5727 5725 5723 5719 5715 5710 5707 5707 5707 5707 5707 5706 5706 5704 5702 5701 5699 5697 5694 5693 5691 5689 5686 5682
5741 5750 5745 5741 5733 5727 5735 5721 5728 5740 5731 5735 5739 5740 5740 5740 5738 5735 5733 5732 5732 5730 5729 5728 5726 5724 5722 5720 5717 5713 5710 5709 5708 5707 5705 5704 5704 5703 5702 5700 5699 5697 5695 5694 5693 5691 5689 5687 5684
5746 5742 5739 5737 5728 5711 5730 5724 5718 5729 5733 5735 5736 5736 5736 5736 5735 5733 5732 5730 5728 5727 5725 5724 5722 5720 5719 5717 5715 5712 5709 5707 5706 5704 5702 5701 5701 5700 5700 5699 5697 5696 5694 5693 5692 5690 5689 5687 5686
5737 5722 5708 5705 5702 5710 5739 5727 5720 5735 5740 5738 5734 5733 5734 5733 5730 5728 5726 5725 5723 5722 5721 5719 5718 5716 5715 5714 5713 5711 5709 5707 5705 5703 5702 5700 5698 5697 5698 5697 5696 5695 5694 5693 5691 5690 5688 5687 5685
5729 5723 5702 5694 5702 5716 5730 5719 5722 5739 5741 5740 5737 5733 5730 5727 5726 5724 5722 5721 5720 5718 5716 5715 5714 5712 5712 5711 5710 5710 5709 5707 5706 5704 5703 5701 5699 5698 5697 5696 5695 5694 5693 5692 5691 5689 5687 5686 5685
5721 5722 5729 5713 5713 5708 5718 5721 5723 5735 5732 5731 5730 5726 5723 5722 5721 5720 5719 5718 5716 5714 5713 5712 5710 5709 5708 5708 5708 5707 5707 5706 5705 5704 5703 5702 5700 5699 5697 5695 5694 5693 5692 5691 5690 5688 5686 5685 5684
5725 5721 5716 5706 5693 5691 5707 5713 5707 5714 5718 5721 5720 5718 5718 5718 5717 5716 5715 5714 5713 5712 5711 5710 5708 5707 5706 5705 5705 5705 5704 5704 5703 5702 5701 5700 5700 5699 5696 5695 5693 5692 5692 5691 5689 5687 5686 5684 5682
5713 5712 5712 5708 5706 5691 5687 5697 5723 5717 5718 5715 5715 5715 5714 5713 5712 5711 5711 5710 5709 5708 5707 5705 5704 5702 5702 5701 5701 5701 5701 5701 5700 5700 5699 5698 5698 5697 5695 5694 5693 5692 5690 5690 5688 5686 5684 5682 5680
5713 5709 5705 5690 5693 5701 5691 5692 5725 5720 5718 5715 5712 5712 5712 5710 5709 5708 5707 5705 5704 5702 5701 5700 5700 5698 5697 5697 5697 5696 5697 5697 5697 5696 5697 5697 5696 5696 5695 5694 5692 5691 5690 5689 5687 5684 5683 5681 5679